Simultaneous Nadir Overpasses (SNOs) Predictions

Prediction of SNOs between AQUA and GOES-15 Satellite Orbit:

Table of predicted SNOs for the next 14.0 days since TLE Epoch: 5/31/2019
Index Date Time (AQUA) AQUA Lat,Lon GOES-15 Lat,Lon Distance(km) Time Diff (sec)
1 06/01/2019 10:07:15 -0.13,-127.91 0.01,-128.44 60.58 80
2 06/03/2019 09:55:03 -0.74,-124.95 0.01,-128.43 395.28 80
3 06/03/2019 22:16:27 -0.36,-130.15 0.01,-128.43 195.64 80
4 06/05/2019 22:04:15 0.26,-127.19 0.01,-128.41 138.17 80
5 06/06/2019 10:25:30 0.82,-132.35 -0.02,-128.40 449.17 80
6 06/07/2019 21:52:04 0.87,-124.23 0.00,-128.38 471.55 80
7 06/08/2019 10:13:18 0.21,-129.39 -0.02,-128.37 116.00 80
8 06/10/2019 10:01:06 -0.41,-126.43 -0.02,-128.34 216.95 80
9 06/10/2019 22:22:31 -0.68,-131.62 0.03,-128.33 375.03 80
10 06/12/2019 22:10:19 -0.05,-128.67 0.03,-128.30 42.30 80




NCC Satellite Simultaneous Nadir Overpasses (SNOs) Prediction Service
